Home > Weather > Taichung > Past weeks

Flag for Taiwan Weather for the Past 2 Weeks in Taichung, Taiwan

Now
91 °F

Passing clouds.


Feels Like: 103 °F
Forecast: 77 / 92 °F
Wind: 24 mph from Southwest

Location: Chiang Kai Shek

Current Time: May 6, 2016 at 12:26:44 PM

Latest Report: May 6, 2016 at 12:00 PM


Visibility: N/A

Pressure: 29.83 "Hg

Humidity: 59%

Dew Point: 75 °F

Location of TaichungLocation

Historic Weather in Taichung — Graph

°F

Taichung Temperature Yesterday

Maximum temperature yesterday: 86 °F (at 12:30 PM)
Minimum temperature yesterday: 77 °F (at 12:30 AM)
Average temperature yesterday: 81 °F

High & Low Weather Summary for the Past Weeks

 TemperatureHumidityPressure
High90 °F (May 6, 11:02 AM)100% (Apr 22, 11:47 PM)30.01 "Hg (Apr 22, 11:47 PM)
Low66 °F (Apr 29, 4:30 AM)54% (Apr 29, 9:30 AM)29.68 "Hg (Apr 27, 2:00 PM)
Average77 °F82%29.86 "Hg
* Reported Apr 21 11:00 AM — May 6 11:02 AM, Taichung, Weather by CustomWeather, © 2016

Note: Actual official high and low records may vary slightly from our data, if they occured in-between our weather recording intervals... More about our weather records

Advertising

Taichung Weather History for the Previous 24 Hours

Scroll right to see more
 ConditionsComfort  
Time TempWeatherWind HumidityBarometerVisibility
11:02 AM
Fri, May 6
90 °FPassing clouds.22 mph67%29.86 "HgN/A
10:30 AM88 °FScattered clouds.23 mph66%29.86 "HgN/A
10:02 AM88 °FScattered clouds.22 mph66%29.86 "HgN/A
9:30 AM86 °FBroken clouds.24 mph70%29.86 "HgN/A
9:00 AM84 °FBroken clouds.18 mph74%29.86 "HgN/A
8:30 AM84 °FBroken clouds.15 mph74%29.86 "HgN/A
8:00 AM82 °FScattered clouds.12 mph79%29.86 "HgN/A
7:30 AM82 °FScattered clouds.10 mph79%29.83 "HgN/A
7:00 AM77 °FPartly sunny.9 mph89%29.86 "HgN/A
6:30 AM77 °FPartly sunny.8 mph89%29.86 "HgN/A
6:00 AM77 °FPartly sunny.7 mph89%29.83 "HgN/A
5:30 AM77 °FPartly sunny.7 mph89%29.83 "HgN/A
5:00 AM77 °FPassing clouds.6 mph89%29.83 "HgN/A
4:30 AM77 °FPassing clouds.6 mph89%29.83 "HgN/A
4:00 AM77 °FPassing clouds.6 mph89%29.83 "HgN/A
3:30 AM77 °FPassing clouds.7 mph89%29.80 "HgN/A
3:00 AM77 °FPassing clouds.3 mph89%29.80 "HgN/A
2:30 AM77 °FPassing clouds.5 mph89%29.80 "HgN/A
2:00 AM79 °FPassing clouds.7 mph84%29.80 "HgN/A
1:30 AM79 °FPassing clouds.6 mph84%29.80 "HgN/A
1:00 AM79 °FPartly cloudy.3 mph84%29.83 "HgN/A
12:30 AM81 °FPassing clouds.7 mph79%29.83 "HgN/A
12:00 AM79 °FPassing clouds.6 mph84%29.83 "HgN/A
11:30 PM
Thu, May 5
81 °FPassing clouds.7 mph79%29.83 "HgN/A
11:00 PM81 °FPassing clouds.6 mph79%29.86 "HgN/A
10:30 PM81 °FPassing clouds.6 mph79%29.86 "HgN/A
10:00 PM79 °FPassing clouds.6 mph84%29.86 "HgN/A
9:30 PM81 °FPassing clouds.8 mph79%29.86 "HgN/A
9:00 PM81 °FPartly cloudy.6 mph79%29.86 "HgN/A
8:30 PM81 °FPartly cloudy.6 mph79%29.86 "HgN/A
8:00 PM81 °FPassing clouds.7 mph79%29.86 "HgN/A
7:30 PM81 °FPassing clouds.8 mph79%29.86 "HgN/A
7:00 PM81 °FPassing clouds.8 mph79%29.86 "HgN/A
6:30 PM82 °FPartly cloudy.9 mph74%29.83 "HgN/A
6:00 PM82 °FScattered showers. Partly sunny.6 mph79%29.83 "HgN/A
5:30 PM82 °FScattered showers. Partly sunny.7 mph79%29.83 "HgN/A
5:00 PM82 °FScattered showers. Partly sunny.8 mph79%29.83 "HgN/A
4:30 PM82 °FPartly sunny.5 mph79%29.83 "HgN/A
4:00 PM82 °FPartly sunny.6 mph79%29.83 "HgN/A
3:30 PM82 °FPartly sunny.8 mph79%29.83 "HgN/A
3:00 PM81 °FPartly sunny.6 mph89%29.83 "Hg6 mi
2:30 PM82 °FPartly sunny.9 mph84%29.83 "Hg6 mi
2:00 PM84 °FPartly sunny.9 mph79%29.83 "Hg6 mi
1:30 PM84 °FBroken clouds.8 mph79%29.86 "Hg6 mi
1:00 PM84 °FPartly sunny.8 mph84%29.86 "Hg4 mi
12:30 PM86 °FPartly sunny.9 mph75%29.86 "Hg4 mi
12:00 PM84 °FPartly sunny.9 mph79%29.89 "Hg4 mi
Weather by CustomWeather, © 2016

See weather overviewHow to use our weather pages